Location: Oberkirch
(48.5323°N, 8.0787°E)
Time: 05:47:37
(UTC+00:00)

Tiros 1 - Pass Details

Date: 17 February 2026
Orbit: 618 x 650 km, 48.4° (Epoch: 13 March)

Event Time Altitude Azimuth Distance (km) Brightness Sun altitude
Rises 11:23:29 0° 272° (W) 2,899 10.4 29.4°
Reaches altitude 10° 11:25:48 10° 272° (W) 1,988 9.7 29.5°
Maximum altitude 11:30:22 89° 178° (S) 624 7.6 29.5°
Drops below altitude 10° 11:34:56 10° 95° (E) 1,980 9.8 29.6°
Sets 11:37:14 0° 95° (E) 2,885 10.6 29.6°
